| time (UTC) | temp F | wind direction | speed knots | gust knots | rain 1hr in | rain 24hr in | rain mn in | humidity % | barometer mb |
| 20260503211148 | 57 | 0.0 | 0.9 | 0.00 | 0.00 | 0.00 | 75 | 1010.8 | |
| 20260503210123 | 57 | 0.0 | 0.0 | 0.00 | 0.00 | 0.00 | 74 | 1010.8 | |
| 20260503205148 | 57 | 0.0 | 0.9 | 0.00 | 0.00 | 0.00 | 74 | 1010.6 | |
| 20260503204144 | 57 | 0.0 | 0.9 | 0.00 | 0.00 | 0.00 | 72 | 1010.7 | |
| 20260503203208 | 57 | 0.0 | 0.0 | 0.00 | 0.00 | 0.00 | 72 | 1010.4 | |
| 20260503202123 | 57 | 180 | 0.9 | 2.6 | 0.00 | 0.00 | 0.00 | 71 | 1010.4 |
| 20260503201147 | 57 | 0.0 | 0.9 | 0.00 | 0.00 | 0.00 | 71 | 1010.2 | |
| 20260503200123 | 57 | 180 | 0.0 | 0.9 | 0.00 | 0.00 | 0.00 | 70 | 1010.2 |
| 20260503195148 | 58 | 270 | 0.0 | 1.7 | 0.00 | 0.00 | 0.00 | 70 | 1010.0 |
| 20260503194124 | 58 | 0.0 | 0.9 | 0.00 | 0.00 | 0.00 | 69 | 1010.1 | |
| 20260503193148 | 59 | 0.0 | 1.7 | 0.00 | 0.00 | 0.00 | 68 | 1009.9 | |
| 20260503192124 | 59 | 0.0 | 0.9 | 0.00 | 0.00 | 0.00 | 67 | 1009.8 | |
| 20260503191148 | 59 | 135 | 0.0 | 0.9 | 0.00 | 0.00 | 0.00 | 67 | 1009.8 |
| 20260503190144 | 60 | 135 | 0.9 | 2.6 | 0.00 | 0.00 | 0.00 | 66 | 1009.9 |
| 20260503185148 | 60 | 0.0 | 0.0 | 0.00 | 0.00 | 0.00 | 66 | 1009.6 | |
| 20260503184124 | 60 | 180 | 0.0 | 1.7 | 0.00 | 0.00 | 0.00 | 66 | 1009.8 |
| 20260503183148 | 60 | 135 | 0.0 | 2.6 | 0.00 | 0.00 | 0.00 | 65 | 1009.6 |
| 20260503182124 | 60 | 292 | 2.6 | 2.6 | 0.00 | 0.00 | 0.00 | 64 | 1009.7 |
| 20260503181148 | 61 | 225 | 2.6 | 5.2 | 0.00 | 0.00 | 0.00 | 65 | 1009.7 |
| 20260503180124 | -8 | 315 | 1.7 | 5.2 | 0.00 | 0.00 | 0.00 | 97 | 1009.7 |
| 20260503175149 | 61 | 0 | 0.0 | 2.6 | 0.00 | 0.00 | 0.00 | 64 | 1009.8 |
| 20260503174124 | 61 | 270 | 0.9 | 3.5 | 0.00 | 0.00 | 0.00 | 64 | 1009.8 |
| 20260503173147 | 61 | 315 | 1.7 | 3.5 | 0.00 | 0.00 | 0.00 | 64 | 1009.8 |
| 20260503172124 | 61 | 180 | 1.7 | 5.2 | 0.00 | 0.00 | 0.00 | 63 | 1009.6 |
| 20260503171148 | 62 | 0.0 | 0.0 | 0.00 | 0.00 | 0.00 | 63 | 1009.7 | |
| 20260503170124 | 62 | 0.0 | 0.9 | 0.00 | 0.00 | 0.00 | 62 | 1009.6 | |
| 20260503160124 | 64 | 225 | 2.6 | 5.2 | 0.00 | 0.00 | 0.00 | 58 | 1009.6 |
| 20260503150123 | 63 | 270 | 2.6 | 5.2 | 0.00 | 0.00 | 0.00 | 62 | 1009.8 |
| 20260503140124 | 65 | 315 | 4.3 | 7.0 | 0.00 | 0.00 | 0.00 | 62 | 1009.9 |
| 20260503131148 | 64 | 315 | 2.6 | 7.0 | 0.00 | 0.00 | 0.00 | 69 | 1009.6 |
| 20260503130124 | 62 | 180 | 0.0 | 1.7 | 0.00 | 0.00 | 0.00 | 71 | 1009.7 |
| 20260503120123 | 60 | 0.0 | 0.9 | 0.00 | 0.00 | 0.00 | 88 | 1009.6 | |
| 20260503110123 | 59 | 315 | 5.2 | 7.8 | 0.00 | 0.00 | 0.00 | 93 | 1009.8 |
| 20260503100123 | 57 | 0.0 | 0.9 | 0.00 | 0.00 | 0.00 | 94 | 1009.6 | |
| 20260503090144 | 56 | 0.0 | 0.0 | 0.00 | 0.00 | 0.00 | 94 | 1009.6 | |
| 20260503081635 | 55 | 0.0 | 0.0 | 0.00 | 0.00 | 0.00 | 93 | 1009.3 | |
| 20260503080611 | 55 | 180 | 0.0 | 0.9 | 0.00 | 0.00 | 0.00 | 93 | 1009.5 |
| 20260503072612 | 55 | 315 | 0.0 | 0.9 | 0.00 | 0.00 | 0.00 | 93 | 1009.3 |
| 20260503071635 | 55 | 315 | 0.0 | 0.9 | 0.00 | 0.00 | 0.00 | 93 | 1009.1 |
| 20260503070612 | 56 | 315 | 0.0 | 1.7 | 0.00 | 0.00 | 0.00 | 93 | 1009.1 |
| 20260503054611 | 57 | 0.0 | 0.0 | 0.00 | 0.00 | 0.00 | 92 | 1008.6 | |
| 20260503053635 | 56 | 0.0 | 0.0 | 0.00 | 0.00 | 0.00 | 92 | 1008.7 | |
| 20260503052612 | 57 | 0.0 | 0.0 | 0.00 | 0.00 | 0.00 | 91 | 1008.6 | |
| 20260503051636 | 57 | 0.0 | 0.0 | 0.00 | 0.00 | 0.00 | 91 | 1008.6 | |
| 20260503050611 | 57 | 0.0 | 0.0 | 0.00 | 0.00 | 0.00 | 92 | 1008.6 | |
| 20260503045656 | 57 | 0.0 | 0.0 | 0.00 | 0.00 | 0.00 | 92 | 1008.6 | |
| 20260503044611 | 56 | 0.0 | 0.0 | 0.00 | 0.00 | 0.00 | 92 | 1008.7 | |
| 20260503043635 | 57 | 0.0 | 0.0 | 0.00 | 0.00 | 0.00 | 92 | 1008.7 | |
| 20260503042611 | 57 | 0.0 | 0.0 | 0.00 | 0.00 | 0.00 | 92 | 1008.7 | |
| 20260503041635 | 56 | 0.0 | 0.0 | 0.00 | 0.00 | 0.00 | 92 | 1008.7 | |
| 20260503040611 | 56 | 0.0 | 0.0 | 0.00 | 0.00 | 0.00 | 92 | 1008.7 | |
| 20260503035636 | 56 | 0.0 | 0.0 | 0.00 | 0.00 | 0.00 | 92 | 1008.9 | |
| 20260503034613 | 56 | 0.0 | 0.0 | 0.00 | 0.00 | 0.00 | 92 | 1008.9 | |
| 20260503033636 | 56 | 0.0 | 0.0 | 0.00 | 0.00 | 0.00 | 92 | 1009.0 | |
| 20260503032611 | 57 | 0.0 | 0.9 | 0.00 | 0.00 | 0.00 | 92 | 1009.1 | |
| 20260503031635 | 57 | 0.0 | 0.0 | 0.00 | 0.00 | 0.00 | 91 | 1009.3 | |
| 20260503030611 | 57 | 0.0 | 0.0 | 0.00 | 0.00 | 0.00 | 91 | 1009.0 | |
| 20260503025635 | 57 | 0.0 | 0.0 | 0.00 | 0.00 | 0.00 | 91 | 1009.2 | |
| 20260503024631 | 57 | 0.0 | 0.0 | 0.00 | 0.00 | 0.00 | 91 | 1009.3 | |
| 20260503023635 | 57 | 0.0 | 0.0 | 0.00 | 0.00 | 0.00 | 91 | 1009.3 | |
| 20260503022611 | 57 | 0.0 | 0.0 | 0.00 | 0.00 | 0.00 | 91 | 1009.3 | |
| 20260503021635 | 57 | 0.0 | 0.0 | 0.00 | 0.00 | 0.00 | 90 | 1009.5 | |
| 20260503020611 | 57 | 0.0 | 0.0 | 0.00 | 0.00 | 0.00 | 90 | 1009.4 | |
| 20260503015756 | 57 | 0.0 | 0.0 | 0.00 | 0.00 | 0.00 | 90 | 1009.5 | |
| 20260503014613 | 57 | 0.0 | 0.0 | 0.00 | 0.00 | 0.00 | 90 | 1009.5 | |
| 20260503013636 | 57 | 0.0 | 0.0 | 0.00 | 0.00 | 0.00 | 90 | 1009.6 | |
| 20260503012612 | 57 | 0.0 | 0.0 | 0.00 | 0.00 | 0.00 | 90 | 1009.9 | |
| 20260503011635 | 57 | 0.0 | 0.0 | 0.00 | 0.00 | 0.00 | 89 | 1009.8 | |
| 20260503010611 | 57 | 0.0 | 0.0 | 0.00 | 0.00 | 0.00 | 89 | 1009.9 | |
| 20260503005635 | 57 | 0.0 | 0.0 | 0.00 | 0.00 | 0.00 | 89 | 1010.1 | |
| 20260503004631 | 57 | 0.0 | 0.0 | 0.00 | 0.00 | 0.00 | 89 | 1010.2 | |
| 20260503003635 | 57 | 0.0 | 0.0 | 0.00 | 0.00 | 0.00 | 89 | 1010.4 | |
| 20260503002611 | 57 | 0.0 | 0.0 | 0.00 | 0.00 | 0.00 | 89 | 1010.5 | |
| 20260503001635 | 57 | 0.0 | 0.0 | 0.00 | 0.00 | 0.00 | 89 | 1010.4 | |
| 20260503000612 | 58 | 315 | 0.9 | 1.7 | 0.00 | 0.00 | 0.00 | 89 | 1010.6 |
| 20260502235636 | 58 | 0.0 | 0.0 | 0.00 | 0.00 | 0.00 | 89 | 1010.7 | |
| 20260502234652 | 58 | 0.0 | 0.0 | 0.00 | 0.00 | 0.00 | 89 | 1010.6 | |
| 20260502233635 | 58 | 0.0 | 0.0 | 0.00 | 0.00 | 0.00 | 89 | 1010.6 | |
| 20260502232611 | 58 | 0.0 | 0.0 | 0.00 | 0.00 | 0.00 | 88 | 1010.6 | |
| 20260502231655 | 58 | 0.0 | 0.0 | 0.00 | 0.00 | 0.00 | 88 | 1010.7 | |
| 20260502230611 | 58 | 0.0 | 0.0 | 0.00 | 0.00 | 0.00 | 88 | 1010.8 | |
| 20260502225635 | 58 | 0.0 | 0.0 | 0.00 | 0.00 | 0.00 | 88 | 1010.8 | |
| 20260502224631 | 58 | 135 | 0.9 | 2.6 | 0.00 | 0.00 | 0.00 | 88 | 1010.8 |
| 20260502223655 | 58 | 0.0 | 0.9 | 0.00 | 0.00 | 0.00 | 88 | 1010.7 | |
| 20260502222611 | 58 | 0.0 | 0.0 | 0.00 | 0.00 | 0.00 | 87 | 1010.9 | |
| 20260502221635 | 58 | 0.0 | 0.0 | 0.00 | 0.00 | 0.00 | 87 | 1010.9 | |
| 20260502220631 | 58 | 0.0 | 0.0 | 0.00 | 0.00 | 0.00 | 87 | 1011.1 | |
| 20260502215635 | 58 | 0.0 | 0.0 | 0.00 | 0.00 | 0.00 | 87 | 1010.9 | |
| 20260502214612 | 58 | 0.0 | 0.0 | 0.00 | 0.00 | 0.00 | 87 | 1011.1 | |
| 20260502213636 | 59 | 0.0 | 0.0 | 0.00 | 0.00 | 0.00 | 86 | 1011.2 | |
| 20260502212612 | 59 | 0.0 | 0.0 | 0.00 | 0.00 | 0.00 | 86 | 1011.3 |